Weather History for KCDD - August, 2013

Change the Weather History Date:

Friday, August 23, 2013

  Actual Average Record
Temperature  
Mean Temperature 60 °F -  
Max Temperature 80 °F 73 °F 91 °F (2010)
Min Temperature 39 °F 51 °F 35 °F (2004)
Degree Days  
Heating Degree Days 6    
Growing Degree Days 10 (Base 50)    
Moisture  
Dew Point 47 °F    
Average Humidity 68    
Maximum Humidity 100    
Minimum Humidity 32    
Precipitation  
Precipitation 0.00 in - - ()
Sea Level Pressure  
Sea Level Pressure 30.13 in    
Wind  
Wind Speed 1 mph (South)    
Max Wind Speed 10 mph    
Max Gust Speed -    
Visibility 10 miles    
Events      
Averages and records for this station are not official NWS values.
T = Trace of Precipitation, MM = Missing Value Source: NWS Daily Summary

Daily Weather History Graph

Daily Weather History Graph

Search for Another Location

Airport or City:

Trip Planner

Search our weather history database for the weather conditions in past years. The results will help you decide how hot, cold, wet, or windy it might be!

Date:

Astronomy

Aug. 23, 2013 Rise Set
Actual Time 6:15 AM CDT 8:08 PM CDT
Civil Twilight 5:42 AM CDT 8:41 PM CDT
Nautical Twilight 5:01 AM CDT 9:22 PM CDT
Astronomical Twilight 4:15 AM CDT 10:07 PM CDT
Moon 9:06 PM CDT (8/23) 9:30 AM CDT (8/23)
Length of Visible Light 14h 59m
Length of Day
13h 52m
Waning Gibbous, 91% of the Moon is Illuminated
Aug 23
Waning Gibbous
Aug 28
Last Quarter
Sep 5
New
Sep 12
First Quarter
Sep 19
Full

Hourly Weather History & Observations

Time (CDT) Temp. Dew Point Humidity Pressure Visibility Wind Dir Wind Speed Gust Speed Precip Events Conditions
12:11 AM 44.6 °F 42.8 °F 93% 30.18 in 10.0 mi Calm Calm - N/A   Clear
12:31 AM 44.6 °F 42.8 °F 93% 30.18 in 10.0 mi Calm Calm - N/A   Clear
12:51 AM 44.6 °F 41.0 °F 87% 30.18 in 10.0 mi Calm Calm - N/A   Clear
1:11 AM 42.8 °F 41.0 °F 93% 30.18 in 10.0 mi Calm Calm - N/A   Clear
1:31 AM 42.8 °F 41.0 °F 93% 30.18 in 10.0 mi Calm Calm - N/A   Clear
1:51 AM 42.8 °F 39.2 °F 87% 30.18 in 10.0 mi Calm Calm - N/A   Clear
2:11 AM 42.8 °F 39.2 °F 87% 30.18 in 10.0 mi Calm Calm - N/A   Clear
2:31 AM 42.8 °F 39.2 °F 87% 30.18 in 10.0 mi Calm Calm - N/A   Clear
2:51 AM 42.8 °F 39.2 °F 87% 30.18 in 10.0 mi Calm Calm - N/A   Clear
3:11 AM 42.8 °F 39.2 °F 87% 30.18 in 10.0 mi Calm Calm - N/A   Clear
3:31 AM 41.0 °F 39.2 °F 93% 30.17 in 10.0 mi Calm Calm - N/A   Clear
3:51 AM 41.0 °F 39.2 °F 93% 30.17 in 10.0 mi Calm Calm - N/A   Clear
4:11 AM 41.0 °F 39.2 °F 93% 30.18 in 10.0 mi Calm Calm - N/A   Clear
4:31 AM 41.0 °F 39.2 °F 93% 30.17 in 10.0 mi Calm Calm - N/A   Clear
4:51 AM 41.0 °F 37.4 °F 87% 30.17 in 10.0 mi Calm Calm - N/A   Clear
5:11 AM 39.2 °F 37.4 °F 93% 30.17 in 7.0 mi Calm Calm - N/A   Clear
5:31 AM 39.2 °F 37.4 °F 93% 30.17 in 10.0 mi Calm Calm - N/A   Clear
5:51 AM 39.2 °F 37.4 °F 93% 30.18 in 10.0 mi Calm Calm - N/A   Clear
6:11 AM 39.2 °F 37.4 °F 93% 30.18 in 10.0 mi Calm Calm - N/A   Clear
6:32 AM 39.2 °F 37.4 °F 93% 30.18 in 10.0 mi Calm Calm - N/A   Clear
6:51 AM 39.2 °F 37.4 °F 93% 30.18 in 10.0 mi Calm Calm - N/A   Clear
7:11 AM 39.2 °F 37.4 °F 93% 30.18 in 10.0 mi Calm Calm - N/A   Clear
7:31 AM 42.8 °F 39.2 °F 87% 30.18 in 10.0 mi Calm Calm - N/A   Clear
7:51 AM 44.6 °F 42.8 °F 93% 30.18 in 10.0 mi Calm Calm - N/A   Clear
8:11 AM 46.4 °F 46.4 °F 100% 30.18 in 10.0 mi Calm Calm - N/A   Clear
8:31 AM 51.8 °F 48.2 °F 88% 30.18 in 10.0 mi Calm Calm - N/A   Clear
8:51 AM 53.6 °F 53.6 °F 100% 30.18 in 10.0 mi Calm Calm - N/A   Clear
9:11 AM 60.8 °F 57.2 °F 88% 30.18 in 10.0 mi Calm Calm - N/A   Clear
9:31 AM 64.4 °F 60.8 °F 88% 30.18 in 10.0 mi South 3.5 mph - N/A   Clear
9:51 AM 69.8 °F 59.0 °F 68% 30.17 in 10.0 mi Calm Calm - N/A   Clear
10:11 AM 71.6 °F 55.4 °F 57% 30.17 in 10.0 mi South 4.6 mph - N/A   Clear
10:31 AM 73.4 °F 53.6 °F 50% 30.16 in 10.0 mi Calm Calm - N/A   Clear
10:51 AM 73.4 °F 51.8 °F 47% 30.16 in 10.0 mi SSW 4.6 mph - N/A   Clear
11:11 AM 75.2 °F 51.8 °F 44% 30.15 in 10.0 mi South 5.8 mph - N/A   Clear
11:31 AM 75.2 °F 48.2 °F 38% 30.15 in 10.0 mi South 4.6 mph - N/A   Clear
11:51 AM 75.2 °F 48.2 °F 38% 30.15 in 10.0 mi SSW 5.8 mph - N/A   Clear
12:11 PM 77.0 °F 48.2 °F 36% 30.14 in 10.0 mi WSW 6.9 mph - N/A   Clear
12:31 PM 75.2 °F 48.2 °F 38% 30.13 in 10.0 mi Calm Calm - N/A   Clear
12:51 PM 75.2 °F 48.2 °F 38% 30.13 in 10.0 mi SSW 5.8 mph - N/A   Clear
1:11 PM 77.0 °F 48.2 °F 36% 30.13 in 10.0 mi WSW 4.6 mph - N/A   Clear
1:31 PM 78.8 °F 48.2 °F 34% 30.12 in 10.0 mi South 5.8 mph - N/A   Clear
1:51 PM 78.8 °F 51.8 °F 39% 30.12 in 10.0 mi South 3.5 mph - N/A   Clear
2:11 PM 80.6 °F 48.2 °F 32% 30.11 in 10.0 mi SSE 6.9 mph - N/A   Scattered Clouds
2:31 PM 80.6 °F 51.8 °F 37% 30.10 in 10.0 mi Calm Calm - N/A   Mostly Cloudy
2:51 PM 80.6 °F 48.2 °F 32% 30.10 in 10.0 mi South 10.4 mph - N/A   Scattered Clouds
3:11 PM 80.6 °F 50.0 °F 34% 30.09 in 10.0 mi SSW 5.8 mph - N/A   Clear
3:32 PM 80.6 °F 48.2 °F 32% 30.09 in 10.0 mi South 4.6 mph - N/A   Clear
3:51 PM 80.6 °F 48.2 °F 32% 30.08 in 10.0 mi SSE 5.8 mph - N/A   Clear
4:11 PM 80.6 °F 48.2 °F 32% 30.07 in 5.0 mi South 6.9 mph - N/A   Haze
4:31 PM 80.6 °F 48.2 °F 32% 30.07 in 10.0 mi South 6.9 mph - N/A   Clear
4:51 PM 80.6 °F 48.2 °F 32% 30.07 in 10.0 mi SSW 4.6 mph - N/A   Clear
5:11 PM 80.6 °F 48.2 °F 32% 30.07 in 10.0 mi South 4.6 mph - N/A   Clear
5:31 PM 80.6 °F 50.0 °F 34% 30.06 in 10.0 mi SSW 3.5 mph - N/A   Clear
5:51 PM 78.8 °F 50.0 °F 36% 30.06 in 10.0 mi SSW 4.6 mph - N/A   Clear
6:11 PM 78.8 °F 51.8 °F 39% 30.06 in 10.0 mi Calm Calm - N/A   Clear
6:31 PM 78.8 °F 51.8 °F 39% 30.05 in 10.0 mi South 3.5 mph - N/A   Clear
6:52 PM 77.0 °F 53.6 °F 44% 30.05 in 10.0 mi Calm Calm - N/A   Clear
7:11 PM 73.4 °F 53.6 °F 50% 30.05 in 10.0 mi Calm Calm - N/A   Clear
7:31 PM 69.8 °F 53.6 °F 56% 30.05 in 10.0 mi Calm Calm - N/A   Clear
7:51 PM 66.2 °F 53.6 °F 64% 30.05 in 10.0 mi Calm Calm - N/A   Clear
8:11 PM 62.6 °F 51.8 °F 68% 30.05 in 10.0 mi Calm Calm - N/A   Clear
8:31 PM 60.8 °F 51.8 °F 72% 30.05 in 10.0 mi Calm Calm - N/A   Clear
8:51 PM 59.0 °F 51.8 °F 77% 30.06 in 10.0 mi Calm Calm - N/A   Clear
9:11 PM 57.2 °F 50.0 °F 77% 30.06 in 10.0 mi Calm Calm - N/A   Clear
9:31 PM 55.4 °F 50.0 °F 82% 30.06 in 10.0 mi Calm Calm - N/A   Clear
9:51 PM 55.4 °F 50.0 °F 82% 30.06 in 10.0 mi Calm Calm - N/A   Clear
10:11 PM 53.6 °F 48.2 °F 82% 30.06 in 10.0 mi Calm Calm - N/A   Clear
10:31 PM 53.6 °F 48.2 °F 82% 30.06 in 10.0 mi Calm Calm - N/A   Clear
10:51 PM 53.6 °F 48.2 °F 82% 30.06 in 10.0 mi Calm Calm - N/A   Clear
11:11 PM 53.6 °F 48.2 °F 82% 30.06 in 10.0 mi Calm Calm - N/A   Clear
11:31 PM 51.8 °F 48.2 °F 88% 30.06 in 10.0 mi Calm Calm - N/A   Clear
11:51 PM 51.8 °F 48.2 °F 88% 30.06 in 10.0 mi Calm Calm - N/A   Clear